Welcome to the New NWS' Forecast!
Most changes are behind the scenes, but click here for differences you might notice.
Latest weather observations around

Tuscaloosa Regional Airport (KTCL)

Using English Units (Switch to International System of Units)
Date/ Time (CDT) Wind (mph) Vis. (mi) Weather Sky Cond. Temp (°F) Rel. Humidity Wind Chill (°F) Heat Index (°F) Pressure Precip. (in)
Air Dwpt 6 hour Altimeter (inHg) Sea level (inHg) 1 hr 3 hr 6 hr
Max Min
Jul 19 15:53 Calm 10 Clear CLR 86 75     70%   95 29.92 29.91   0  
Jul 19 14:53 Calm 10 Clear CLR 85 75     72%   93 29.93 29.92      
Jul 19 13:53 Calm 10 Partly Cloudy SCT034 79 74     85%   83 29.93 29.92 0    
Jul 19 13:17 3 9 Light Rain SCT009 BKN043 OVC120 78 74     87%   80 29.95   0    
Jul 19 12:53 NNW 3 5 Light Rain and Fog/Mist BKN006 OVC011 76 73     91%   77 29.97 29.96 0   0
Jul 19 12:29 Calm 5 Light Rain and Fog/Mist BKN006 BKN048 OVC100 76 74     94%   78 29.97   0    
Jul 19 12:17 NNW 3 4 Light Rain and Fog/Mist SCT007 BKN080 OVC100 76 73     91%   77 29.97   0    
Jul 19 11:53 WNW 5 3 Light Rain and Fog/Mist FEW015 FEW065 OVC090 76 73     91%   77 29.98 29.97 0    
Jul 19 11:34 NW 6 2.5 Rain and Fog/Mist FEW016 SCT070 OVC090 76 73     91%   77 29.99   0    
Jul 19 10:53 NW 7 5 Light Rain and Fog/Mist SCT049 SCT060 OVC110 76 74     94%   78 29.99 29.98 0    
Jul 19 09:53 N 6 7 Light Rain SCT008 BKN050 OVC075 78 74     87%   80 29.98 29.97 0 0  
Jul 19 09:42 Calm 7 Light Rain SCT008 BKN050 OVC075 78 74     87%   80 29.98   0    
Jul 19 09:30 NW 5 8 Light Rain BKN008 BKN050 77 74     90%   79 29.98   0    
Jul 19 09:06 WNW 5 8 Mostly Cloudy FEW005 SCT085 BKN120 78 75     90%   80 29.98        
Jul 19 08:53 Calm 8 Mostly Cloudy FEW050 SCT085 BKN120 78 75     90%   80 29.97 29.96 0    
Jul 19 08:19 Calm 8 Light Rain FEW005 SCT075 OVC110 78 75     90%   80 29.96   0    
Jul 19 07:53 Calm 7 Light Rain FEW055 OVC110 77 75     94%   79 29.95 29.94 0    
Jul 19 06:53 Calm 5 Fog/Mist SCT110 77 74     90%   79 29.94 29.93     0
Jul 19 05:53 Calm 9 Mostly Clear FEW065 FEW110 76 74     94%   78 29.94 29.93      
Jul 19 04:53 Calm 8 Clear CLR 77 74     90%   79 29.92 29.91      
Jul 19 03:53 Calm 10 Cloudy OVC120 77 73     88%   79 29.91 29.9   0  
Jul 19 02:53 Calm 10 Clear CLR 76 73     91%   77 29.89 29.88      
Jul 19 01:53 N 3 10 Mostly Clear FEW055 78 72     82%   79 29.9 29.89 0    
Jul 19 00:53 NW 3 10 Clear CLR 78 72     82%   79 29.92 29.91      
Jul 18 23:53 Calm 10 Clear CLR 78 71     79%   79 29.94 29.93      
Jul 18 22:53 S 6 10 Mostly Clear FEW044 78 72     82%   79 29.94 29.93      
Jul 18 21:53 S 5 10 Clear CLR 80 72     76%   84 29.93 29.92      
Jul 18 20:53 SSW 5 10 Clear CLR 80 72     76%   84 29.93 29.92      
Jul 18 19:53 SW 3 10 Clear CLR 82 73     74%   87 29.91 29.9      
Jul 18 19:42 SSW 3 10 Clear CLR 81 73     77%   86 29.91        
Jul 18 19:08 SE 8 10 Clear CLR 85 76     75%   94 29.9        
Jul 18 18:53 Calm 10 Clear CLR 86 76     72%   96 29.9 29.89      
Jul 18 18:42 Calm 10 Clear CLR 85 77     77%   95 29.89        
Jul 18 17:53 WNW 8 10 Clear CLR 89 76     65%   100 29.89 29.88      
Jul 18 17:38 N 7 10 Partly Cloudy FEW045 SCT060 91 76     61%   103 29.89        
Jul 18 16:53 W 5 10 Mostly Cloudy SCT045 BKN060 92 75     58%   103 29.88 29.88      
Jul 18 15:53   10 Mostly Cloudy BKN046 BKN055 94 75     54%   106 29.89 29.88      
Jul 18 14:53 W 6 10 Mostly Cloudy SCT038 BKN060 93 76     58%   106 29.92 29.91      
Jul 18 13:53 WSW 5 10 Clear CLR 93 76     58%   106 29.95 29.94      
Jul 18 12:53 SW 5 10 Mostly Clear FEW035 91 77     64%   105 29.97 29.96      
Jul 18 11:53 3 10 Clear CLR 89 77     68%   102 29.98 29.97      
Jul 18 10:53 Calm 10 Clear CLR 87 75     68%   97 30 29.99      
Jul 18 09:53 NNE 5 10 Clear CLR 85 74     70%   92 30 29.99      
Jul 18 08:53 Calm 10 Clear CLR 80 73     79%   84 30.01 30      
Jul 18 07:53 Calm 10 Clear CLR 76 73     91%   77 30.01 30      
Jul 18 06:53 Calm 9 Clear   74 72     94%   75 30.01 30      
Jul 18 05:53 Calm 7 Clear CLR 74 72     94%   75 30.01 30      
Jul 18 04:53 Calm 10 Clear CLR 74 72     94%   75 29.98 29.97      
Jul 18 03:53 NW 3 10 Clear CLR 75 73     94%   77 29.97 29.96      
Jul 18 03:24 SW 5 8 Partly Cloudy SCT003 75 73     94%   77 29.97        
Jul 18 02:53 Calm 10 Clear CLR 75 73     94%   77 29.96 29.96      
Jul 18 01:53 Calm 10 Clear CLR 75 73     94%   77 29.97 29.96      
Jul 18 00:53 NE 3 10 Clear CLR 76 72     88%   77 29.97 29.96      
Jul 17 23:53 NNW 3 10 Clear CLR 77 72     84%   78 29.99 29.98      
Jul 17 22:53 Calm 10 Clear CLR 77 72     84%   78 30 29.99      
Jul 17 21:53 WSW 6 10 Clear CLR 77 72     84%   78 30 29.99      
Jul 17 21:25 Calm 10 Clear CLR 78 71     79%   79 29.99        
Jul 17 21:06 SW 6 10 Partly Cloudy SCT060 SCT100 78 71     79%   79 29.99        
Jul 17 20:53 NW 7 10 Thunderstorms FEW042 BKN060 OVC095 79 70     74%   82 30 29.99      
Jul 17 20:20 WNW 7 10 Thunderstorms FEW031 FEW041 BKN060 84 75     74%   92 30        
Jul 17 20:04 Calm 10 Clear CLR 85 77     77%   95 29.98        
Jul 17 19:53 WNW 3 10 Clear CLR 85 78     80%   97 29.97 29.97      
Jul 17 18:53 Calm 10 Clear CLR 88 78     73%   102 29.96 29.95      
Jul 17 18:29 SW 3 10 Clear CLR 89 77     68%   102 29.96        
Jul 17 17:53 SSW 3 10 Clear CLR 91 76     61%   103 29.95 29.94      
Jul 17 16:53 SW 3 10 Clear CLR 92 76     60%   104 29.94 29.93      
Jul 17 15:53 5 10 Clear CLR 91 77     64%   105 29.95 29.94      
Jul 17 14:53 SSW 7 10 Clear CLR 90 77     66%   103 29.98 29.98      
Jul 17 13:53 Calm 10 Clear CLR 88 75     66%   98 30 29.99      
Jul 17 12:53 Calm 10 Clear CLR 86 76     72%   96 30.02 30.01      
Jul 17 12:03 Calm 10 Partly Cloudy SCT016 84 75     74%   92 30.04        
Jul 17 11:53 SE 3 10 Mostly Cloudy BKN016 83 75     77%   90 30.04 30.03      
Jul 17 11:34 Calm 10 Mostly Cloudy BKN016 82 74     77%   88 30.04        
Jul 17 10:53 Calm 10 Cloudy OVC013 80 73     79%   84 30.04 30.03      
Jul 17 09:53 Calm 10 Cloudy OVC010 78 73     85%   80 30.05 30.04      
Jul 17 08:53 SW 3 8 Cloudy OVC007 76 73     91%   77 30.05 30.04      
Jul 17 07:53 Calm 7 Cloudy OVC006 75 73     94%   77 30.05 30.04      
Jul 17 06:53 WSW 3 7 Cloudy OVC005 75 72     90%   76 30.05 30.03      
Jul 17 05:53 SW 3 8 Cloudy OVC005 74 72     94%   75 30.04 30.03      
Jul 17 05:30 Calm 8 Cloudy OVC005 74 73     97%   76 30.03        
Jul 17 04:53 SW 3 7 Cloudy OVC004 74 72     94%   75 30.03 30.02      
Jul 17 03:53 SSW 3 7 Clear   74 72     94%   75 30.02 30.01      
Jul 17 03:43 S 3 7 Mostly Cloudy BKN004 BKN009 74 72     94%   75 30.02        
Jul 17 02:53 Calm 7 Mostly Clear FEW003 74 72     94%   75 30 29.99      
Jul 17 01:53 WSW 5 9 Clear CLR 75 73     94%   77 30 29.99      
Jul 17 00:53 Calm 10 Clear CLR 75 73     94%   77 30 29.99      
Jul 16 23:53 SSE 5 10 Clear CLR 75 73     94%   77 30.01 30      
Jul 16 22:53 SSW 5 10 Mostly Clear FEW060 77 73     88%   79 30.03 30.02      
Jul 16 21:53 SSW 6 10 Clear CLR 78 74     87%   80 30.04 30.03      
Jul 16 20:53 WSW 5 10 Mostly Clear FEW016 80 76     87%   85 30.02 30.01      
Jul 16 20:44 WSW 6 10 Partly Cloudy SCT013 81 77     88%   88 30.01        
Jul 16 20:15 W 7 10 Mostly Cloudy BKN013 BKN020 82 78     88%   91 30        
Jul 16 20:07 W 6 9 Partly Cloudy FEW018 SCT028 82 78     88%   91 29.99        
Jul 16 19:53 W 3 9 Mostly Cloudy SCT016 SCT023 BKN028 83 78     85%   93 29.99 29.98      
Jul 16 18:53 Calm 10 Clear CLR 84 77     80%   94 29.98 29.97      
Jul 16 17:53 SSW 5 10 Clear CLR 84 77     80%   94 29.98 29.97      
Jul 16 16:53 SW 8 10 Clear CLR 84 76     77%   93 29.98 29.97      
Jul 16 15:53 SSW 10 10 Clear CLR 87 77     72%   99 29.97 29.96      
May 14 13:53 NE 6 10 Clear CLR 94 61     34%   94 30 29.99      
May 13 19:53 Calm 10 Clear CLR 80 69     69%   83 30.01 30.01      
May 12 07:48 Calm 2 Clear   70 63     78%     30.17        
May 11 23:53 Calm 9 Clear CLR 66 65     96%     30.08 30.07      
Jun 11 13:53 7 10 Mostly Clear FEW050 90 67     47%   93 30.1 30.09      
Jun 11 12:53 SE 7 10 Mostly Clear FEW048 88 67     50%   91 30.11 30.1      
Jun 10 23:53 NNE 3 10 Clear CLR 71 66     84%   72 30.07 30.06 0    
Jun 10 11:53 3 10 Partly Cloudy SCT080 86 60     42%   86 30.07 30.06      
Jun 10 09:53 6 10 Clear CLR 81 62     53%   82 30.07 30.06      
Jun 09 15:53 SW 7 10 Clear CLR 82 58     44%   82 29.94 29.93      
Jun 09 01:53 Calm 8 Clear CLR 61 59     93%     29.92 29.91      
Jun 08 10:53 N 8 10 Clear CLR 76 59     56%   76 29.94 29.93      
Jun 06 03:53 NE 3 10 Cloudy OVC007 72 70     93%   73 29.77 29.76      
Jun 05 21:43 NE 5 10 Cloudy BKN009 OVC023 72 71     97%   73 29.8   0